Weather History for Bergamo, Italy

Change the Weather History Date:

Tuesday, February 19, 2013

  Actual Average Record
Temperature  
Mean Temperature 38 °F -  
Max Temperature 46 °F 51 °F 60 °F (1998)
Min Temperature 30 °F 36 °F 24 °F (2003)
Degree Days  
Heating Degree Days 27    
Moisture  
Dew Point 29 °F    
Average Humidity 72    
Maximum Humidity 87    
Minimum Humidity 53    
Precipitation  
Precipitation 0.00 in 0.10 in - ()
Sea Level Pressure  
Sea Level Pressure 29.96 in    
Wind  
Wind Speed 5 mph ()    
Max Wind Speed 9 mph    
Max Gust Speed -    
Visibility 5.1 miles    
Events      
Averages and records for this station are not official NWS values.
T = Trace of Precipitation, MM = Missing Value Source: Averaged Metar Reports

Daily Weather History Graph

Daily Weather History Graph

Search for Another Location

Airport:

Trip Planner

Search our weather history database for the weather conditions in past years. The results will help you decide how hot, cold, wet, or windy it might be!

Date:

Astronomy

Feb. 19, 2013 Rise Set
Actual Time 7:16 AM CET 5:53 PM CET
Civil Twilight 6:46 AM CET 6:24 PM CET
Nautical Twilight 6:12 AM CET 6:58 PM CET
Astronomical Twilight 5:37 AM CET 7:33 PM CET
Moon 12:02 PM CET (2/19) 2:43 AM CET (2/19)
Length of Visible Light 11h 37m
Length of Day
10h 37m
Waxing Gibbous, 65% of the Moon is Illuminated
Feb 19
Waxing Gibbous
Feb 25
Full
Mar 4
Last Quarter
Mar 11
New
Mar 19
First Quarter

Hourly Weather History & Observations

Time (CET) Temp. Windchill Dew Point Humidity Pressure Visibility Wind Dir Wind Speed Gust Speed Precip Events Conditions
12:20 AM 32.0 °F 27.5 °F 26.6 °F 80% 30.06 in - North 4.6 mph - N/A   Clear
12:50 AM 32.0 °F 26.4 °F 28.4 °F 87% 30.06 in - North 5.8 mph - N/A   Clear
1:20 AM 32.0 °F 26.4 °F 28.4 °F 87% 30.06 in - NNE 5.8 mph - N/A   Clear
1:50 AM 32.0 °F 26.4 °F 28.4 °F 87% 30.06 in - NNE 5.8 mph - N/A   Clear
2:20 AM 32.0 °F 27.5 °F 28.4 °F 87% 30.06 in 6.2 mi NNE 4.6 mph - N/A   Scattered Clouds
2:50 AM 32.0 °F 27.5 °F 26.6 °F 80% 30.06 in 6.2 mi NNE 4.6 mph - N/A   Scattered Clouds
3:20 AM 33.8 °F 27.7 °F 26.6 °F 75% 30.04 in 6.2 mi NNE 6.9 mph - N/A   Scattered Clouds
3:50 AM 32.0 °F 26.4 °F 26.6 °F 80% 30.04 in 6.2 mi North 5.8 mph - N/A   Scattered Clouds
4:20 AM 33.8 °F 29.6 °F 26.6 °F 75% 30.04 in 6.2 mi NNE 4.6 mph - N/A   Scattered Clouds
4:50 AM 33.8 °F 28.6 °F 26.6 °F 75% 30.04 in 6.2 mi North 5.8 mph - N/A   Scattered Clouds
5:20 AM 32.0 °F 26.4 °F 26.6 °F 80% 30.04 in 6.2 mi North 5.8 mph - N/A   Scattered Clouds
5:50 AM 32.0 °F 25.6 °F 26.6 °F 80% 30.04 in 6.2 mi NNE 6.9 mph - N/A   Scattered Clouds
6:20 AM 30.2 °F 25.4 °F 26.6 °F 86% 30.01 in - North 4.6 mph - N/A   Clear
6:50 AM 30.2 °F 25.4 °F 26.6 °F 86% 30.01 in - North 4.6 mph - N/A   Clear
7:20 AM 30.2 °F 25.4 °F 24.8 °F 80% 30.01 in 5.6 mi NNE 4.6 mph - N/A   Unknown
7:50 AM 32.0 °F 28.7 °F 26.6 °F 80% 30.01 in 5.6 mi North 3.5 mph - N/A   Partly Cloudy
8:20 AM 32.0 °F 28.7 °F 26.6 °F 80% 30.04 in 5.6 mi North 3.5 mph - N/A   Partly Cloudy
8:50 AM 33.8 °F - 30.2 °F 87% 30.04 in 5.6 mi NE 2.3 mph - N/A   Partly Cloudy
9:20 AM 35.6 °F - 28.4 °F 75% 30.01 in - Variable 2.3 mph - N/A   Clear
9:50 AM 37.4 °F - 30.2 °F 75% 30.01 in 5.6 mi Variable 1.2 mph - N/A   Unknown
10:20 AM 41.0 °F - 30.2 °F 65% 30.01 in 5.6 mi Variable 2.3 mph - N/A   Unknown
10:50 AM 41.0 °F 39.0 °F 30.2 °F 65% 30.01 in 5.6 mi South 3.5 mph - N/A   Partly Cloudy
11:20 AM 42.8 °F 41.1 °F 32.0 °F 66% 30.01 in 5.6 mi Variable 3.5 mph - N/A   Partly Cloudy
11:50 AM 42.8 °F 40.1 °F 30.2 °F 61% 30.01 in 5.6 mi SSW 4.6 mph - N/A   Partly Cloudy
12:20 PM 44.6 °F 42.2 °F 30.2 °F 57% 29.98 in 5.6 mi WSW 4.6 mph - N/A   Unknown
12:50 PM 44.6 °F 40.7 °F 32.0 °F 61% 29.98 in 5.6 mi West 6.9 mph - N/A   Unknown
1:20 PM 44.6 °F 40.2 °F 32.0 °F 61% 29.95 in 5.0 mi WSW 8.1 mph - N/A   Unknown
1:50 PM 46.4 °F 42.4 °F 32.0 °F 57% 29.95 in 5.0 mi West 8.1 mph - N/A   Unknown
2:20 PM 46.4 °F 42.4 °F 30.2 °F 53% 29.92 in 5.0 mi WSW 8.1 mph - N/A   Unknown
2:50 PM 46.4 °F 41.9 °F 32.0 °F 57% 29.92 in 5.0 mi WSW 9.2 mph - N/A   Unknown
3:20 PM 46.4 °F 41.9 °F 32.0 °F 57% 29.89 in 5.0 mi WSW 9.2 mph - N/A   Unknown
3:50 PM 46.4 °F 41.9 °F 30.2 °F 53% 29.89 in 5.0 mi WSW 9.2 mph - N/A   Unknown
4:20 PM 46.4 °F 42.4 °F 32.0 °F 57% 29.86 in 5.0 mi WSW 8.1 mph - N/A   Unknown
4:50 PM 46.4 °F 41.9 °F 30.2 °F 53% 29.86 in 5.0 mi WSW 9.2 mph - N/A   Unknown
5:20 PM 44.6 °F 39.7 °F 30.2 °F 57% 29.86 in 5.0 mi West 9.2 mph - N/A   Unknown
5:50 PM 44.6 °F 40.7 °F 30.2 °F 57% 29.86 in 4.3 mi WSW 6.9 mph - N/A   Unknown
6:20 PM 42.8 °F 38.6 °F 30.2 °F 61% 29.86 in 4.3 mi WSW 6.9 mph - N/A   Unknown
6:50 PM 41.0 °F - 30.2 °F 65% 29.86 in 4.3 mi Variable 2.3 mph - N/A   Unknown
7:20 PM 42.8 °F 41.1 °F 32.0 °F 66% 29.86 in 4.3 mi NNW 3.5 mph - N/A   Unknown
7:50 PM 39.2 °F - 30.2 °F 70% 29.86 in 4.3 mi Calm Calm - N/A   Unknown
8:20 PM 37.4 °F - 30.2 °F 75% 29.86 in 4.3 mi Variable 2.3 mph - N/A   Unknown
8:50 PM 35.6 °F 30.7 °F 30.2 °F 81% 29.86 in 4.3 mi North 5.8 mph - N/A   Unknown
9:20 PM 35.6 °F 31.7 °F 30.2 °F 81% 29.86 in 3.7 mi North 4.6 mph - N/A   Partly Cloudy
9:50 PM 37.4 °F 34.9 °F 32.0 °F 81% 29.86 in 3.7 mi NNE 3.5 mph - N/A   Partly Cloudy
10:20 PM 35.6 °F 31.7 °F 30.2 °F 81% 29.86 in 3.7 mi North 4.6 mph - N/A   Partly Cloudy
10:50 PM 35.6 °F 31.7 °F 30.2 °F 81% 29.86 in 3.7 mi NNE 4.6 mph - N/A   Partly Cloudy
11:20 PM 33.8 °F 28.6 °F 30.2 °F 87% 29.86 in 3.7 mi North 5.8 mph - N/A   Unknown
11:50 PM 35.6 °F 32.8 °F 30.2 °F 81% 29.86 in 3.7 mi North 3.5 mph - N/A   Unknown